Location: Bucquoy
(50.1391°N, 2.7097°E)
Time: 03:52:49
(UTC+00:00)

Cosmos 2369 Rocket - Pass Details

Date: 06 May 2021
Orbit: 827 x 854 km, 71.0° (Epoch: 22 June)

Event Time Altitude Azimuth Distance (km) Brightness Sun altitude
Exits shadow 03:13:13 - 275° (W) 3,309 4.9 -9.2°
Reaches altitude 10° 03:16:36 10° 297° (WNW) 2,455 4.4 -8.8°
Maximum altitude 03:19:42 15° 331° (NNW) 2,135 4.4 -8.4°
Drops below altitude 10° 03:22:50 10° 5° (N) 2,470 5.3 -8.0°
Sets 03:26:31 0° 29° (NNE) 3,414 6.8 -7.6°
